Regional Weather Roundup
Issued by NWS Upton, NY

Current Version | Previous Version | Graphics & Text | Print | Product List | Glossary Off
Versions: 1 2 3 4 5 6 7 8 9 10 11 12 13 14 15 16 17 18 19 20 21 22 23 24 25 26 27 28

000
ASUS41 KOKX 300805
RWROKX

REGIONAL WEATHER ROUNDUP
NATIONAL WEATHER SERVICE NEW YORK NY
400 AM EDT THU OCT 30 2014

NOTE: "FAIR" INDICATES FEW OR NO CLOUDS BELOW 12,000 FEET WITH NO
SIGNIFICANT WEATHER AND/OR OBSTRUCTIONS TO VISIBILITY.

NYZ071-072-176-178-NJZ106-104-300900-
NEW YORK CITY METRO AREA


CITY           SKY/WX    TMP DP  RH WIND       PRES   REMARKS
CENTRAL PARK   CLEAR     49  44  83 CALM      29.96F
LAGUARDIA APRT PTCLDY    52  45  77 CALM      29.94S
KENNEDY INTL   PTCLDY    51  46  83 W5        29.95F
NEWARK/LIBERTY PTCLDY    47  45  93 S5        29.95S
BRNX BOT. GARD   N/A     48  45  87 CALM      29.96R
TETERBORO      CLEAR     42  40  92 CALM      29.94S
$$

NYZ177-179-078>081-300900-
LONG ISLAND NEW YORK

CITY           SKY/WX    TMP DP  RH WIND       PRES   REMARKS
FARMINGDALE    CLEAR     47  45  93 CALM      29.94S
ISLIP          CLEAR     45  44  97 CALM      29.92S
SHIRLEY        PTCLDY    44  43  96 CALM      29.94S FOG
WESTHAMPTON    PTCLDY    40  37  89 CALM      29.94S
MONTAUK POINT    N/A     55  40  56 NW9       29.93S
$$

NYZ052-065-067-300900-
HUDSON VALLEY

CITY           SKY/WX    TMP DP  RH WIND       PRES   REMARKS
WHITE PLAINS   PTCLDY    43  42  97 CALM      29.93S FOG
NEWBURGH       CLEAR     43  43 100 CALM      29.95S FOG
MONTGOMERY     CLOUDY    38  38 100 CALM      29.94S FOG
POUGHKEEPSIE   CLOUDY    39  37  92 CALM      29.93S
ALBANY         CLOUDY    49  40  71 W9        29.92F
$$

NJZ001-105-106-008-010-013-015-019>022-104-300900-
NEW JERSEY

CITY           SKY/WX    TMP DP  RH WIND       PRES   REMARKS
NEWARK/LIBERTY PTCLDY    47  45  93 S5        29.95S
TETERBORO      CLEAR     42  40  92 CALM      29.94S
CALDWELL       FOG       40  38  93 CALM      29.96S VSB 3/4
MORRISTOWN     FOG       39  37  93 CALM      29.95S VSB 1/4
SOMERVILLE     FOG       45  43  93 CALM      29.95S VSB 1/4
SUSSEX         FOG       42  40  92 CALM      29.95S VSB 1/4
ANDOVER          N/A     41  41 100 CALM      29.95F
TRENTON        FOG       46  44  93 NW5       29.95F VSB 1/4
MILLVILLE      MOCLDY    41  40  96 CALM      29.97S
ATLANTIC CITY  MOCLDY    45  42  89 CALM      29.96S FOG
WRIGHTSTOWN    FOG       48  48 100 NW6       29.94S VSB 1/4
TOMS RIVER     CLOUDY    39  37  93 CALM      29.96S VSB<1/4
BELMAR         MOCLDY    45  39  81 W6        29.95S VSB 1
$$

PAZ047>061-062-071-300900-
EASTERN PENNSYLVANIA

CITY           SKY/WX    TMP DP  RH WIND       PRES   REMARKS
PHILADELPHIA   CLEAR     46  44  93 SW5       29.97F
ALLENTOWN      FOG       41  40  96 CALM      29.96S VSB 1/4
SCRANTON       PTCLDY    46  39  76 W5        29.96R
$$

CTZ002-004>006-009-010-012-RIZ004-006-007-MAZ004-011-015-300900-
SOUTHERN NEW ENGLAND
 IN CT

CITY           SKY/WX    TMP DP  RH WIND       PRES   REMARKS
BRADLEY INTL   PTCLDY    41  38  89 SW3       29.92S
HARTFORD       FOG       40  40 100 SE8       29.93S VSB 1/2 WCI  34
DANBURY        FOG       39  37  92 CALM      29.94F VSB 1/4
WTRBRY/OXFORD  CLEAR     39  34  81 N3        29.93S
BRIDGEPORT     CLEAR     45  44  97 CALM      29.93S
MERIDEN        CLEAR     39  36  89 CALM      29.93F
NEW HAVEN      CLEAR     42  38  85 CALM      29.93S
CHESTER        FAIR      43  37  81 NW3       29.93S
GROTON         PTCLDY    45  40  82 CALM      29.92S
WILLIMANTIC    PTCLDY    40  38  93 CALM      29.92F

 IN RI

CITY           SKY/WX    TMP DP  RH WIND       PRES   REMARKS
PROVIDENCE     PTCLDY    48  39  71 W3        29.91S
BLOCK ISLAND   MOCLDY    52  37  58 NW8       29.91S
WESTERLY       PTCLDY    47  39  74 CALM      29.92S

 IN MA

CITY           SKY/WX    TMP DP  RH WIND       PRES   REMARKS
BOSTON         CLEAR     49  40  71 W9        29.88F
WORCESTER      CLEAR     43  36  76 W13       29.89S
WESTFIELD      PTCLDY    35  33  92 CALM      29.92S FOG
PROVINCETOWN   PTCLDY    52  -2  11 NW16G22   29.88S
NANTUCKET      CLOUDY    55  43  63 NW14      29.87S
$$

ANZ330-335-338-340-345-350-353-355-300900-
COASTAL MARINE OBSERVATIONS


STATION/POSITION TIME  SKY/WX   TEMP    WIND        PRES    VSBY  WAVE
                                AIR SEA DIR/SP/G                  HT/PER
                 (UTC)          (F)     (DEG/KT/KT) (MB)    (MI)  (FT/S)
NY HARB ENTRANCE 0800            55 61  300/  8/ 10 1014.2          2/ 6
4S FIRE IS       0800               62                N/A           2/ 6
20S FIRE ISLAND  0800            57 62  360/  8/ 10 1013.5          3/ 6
23SW MTP         0800                                 N/A           3/ 7
HUDSON CANYON    0800            58 65  350/ 16/ 19 1012.6          4/ 6
EXECUTION ROCKS  0800            52 60  260/  6/  8   N/A
WESTERN LI SOUND 0800            53     250/  4/  6   N/A           0
CENTRAL LI SOUND 0800            55 62  330/ 10/ 12   N/A           1/ 4
EASTERN LI SOUND 0700            52 62  340/  8/ 12   N/A
ROBBINS REEF     0800            51     260/  7/  8 1012.9
$$


>>>>>>>>>>>>>>>>>>>>>>>>>>>> KEY <<<<<<<<<<<<<<<<<<<<<<<<<<<
>                                                          <
>     SKY/WX - SKY CONDITION/PRESENT WEATHER               <
>     TMP    - TEMPERATURE IN FAHRENHEIT                   <
>     DP     - DEWPOINT IN FAHRENHEIT                      <
>     RH     - RELATIVE HUMIDITY IN PERCENT                <
>     WIND   - DIRECTION AND SPEED IN MPH                  <
>     PRES   - MEAN SEA LEVEL PRESSURE IN INCHES OF HG     <
>     WCI    - WIND CHILL INDEX                            <
>     VSB    - VISIBILITY IN MILES                         <
>     HX     - HEAT INDEX                                  <
>     TC     - TEMPERATURE IN CELSIUS                      <
>     VRB    - VARIABLE WIND DIRECTION                     <
>                                                          <
>>>>>>>>>>>>>>>>>>>>>>>>>>>> KEY <<<<<<<<<<<<<<<<<<<<<<<<<<<





USA.gov is the U.S. government's official web portal to all federal, state and local government web resources and services.